Regional Weather Roundup
Issued by NWS

Home | Current Version | Previous Version | Graphics & Text | Print | Product List | Glossary On
Versions: 1 2 3 4 5 6 7 8 9 10 11 12 13 14 15 16 17 18 19 20 21 22 23 24 25 26 27 28 29 30 31 32 33 34 35 36 37 38 39 40 41 42 43 44 45 46 47 48 49 50
000
ASUS43 KBIS 221110
RWRND

NORTH DAKOTA REGIONAL WEATHER ROUNDUP
NATIONAL WEATHER SERVICE BISMARCK ND
600 AM CDT WED OCT 22 2014

NOTE: "FAIR" INDICATES FEW OR NO CLOUDS BELOW 12,000 FEET WITH NO
SIGNIFICANT WEATHER AND/OR OBSTRUCTIONS TO VISIBILITY.


NDZ001>003-009>011-017-221200-
NORTHWEST NORTH DAKOTA

CITY           SKY/WX    TMP DP  RH WIND       PRES   REMARKS
WILLISTON      PTCLDY    51  45  79 W16       29.75R
MINOT          PTCLDY    56  44  64 SW10      29.66R
MINOT AFB      PTCLDY    52  46  79 W10       29.66R
$$

NDZ018>021-031>035-040>046-221200-
SOUTHWEST NORTH DAKOTA

CITY           SKY/WX    TMP DP  RH WIND       PRES   REMARKS
BISMARCK       PTCLDY    55  48  77 W7        29.73R
DICKINSON      CLOUDY    51  45  79 W22G30    29.79R
GARRISON         N/A     53  46  77 W15       29.70R
HETTINGER ARPT MOCLDY    50  44  80 W18       29.85R
$$

NDZ004>008-012>016-024-026-027-054-221200-
NORTHEAST NORTH DAKOTA

CITY           SKY/WX    TMP DP  RH WIND       PRES   REMARKS
GRAND FORKS    FAIR      55  42  61 S20G29    29.81R
GRND FRKS AFB  MOCLDY    55  42  62 S21G31    29.79S
DEVILS LAKE    CLOUDY    55  41  58 SE15      29.70S
$$

NDZ022-023-025-028>030-036>039-047>053-221200-
SOUTHEAST NORTH DAKOTA

CITY           SKY/WX    TMP DP  RH WIND       PRES   REMARKS
FARGO          PTCLDY    56  41  57 SE28G39   29.86S
JAMESTOWN      PTCLDY    57  40  52 S15G24    29.76S
$$




USA.gov is the U.S. government's official web portal to all federal, state and local government web resources and services.